Location: Caoba
(9.7667°N, 67.4833°W)
Time: 19:19:32
(UTC+00:00)

GOES 2 Rocket - Visible Passes

Search period start: 05 December 2024 00:00
Search period end: 15 December 2024 00:00
Orbit: 568 x 1663 km, 28.4° (Epoch: 05 December)

Date Brightness Start Highest point End Pass type
(mag) Time Alt. Az. Time Alt. Az. Time Alt. Az.
05 Dec 6.2 00:07:42 10° S 00:11:57 15° SSE 00:13:05 14° SSE visible
05 Dec 6.9 02:00:36 10° SW 02:00:38 10° SW 02:00:38 10° SW visible
05 Dec 5.4 09:45:16 10° N 09:47:39 14° NNE 09:50:15 10° NE visible
05 Dec 6.4 23:22:58 10° S 23:26:41 13° SSE 23:30:04 10° SE visible
06 Dec 6.1 01:15:19 10° SW 01:18:39 23° SSW 01:18:39 23° SSW visible
06 Dec 5.5 09:02:27 10° NNE 09:02:53 10° NNE 09:03:21 10° NNE visible
06 Dec 6.6 22:38:35 10° S 22:41:17 11° SSE 22:43:51 10° SE visible
07 Dec 5.4 00:30:01 10° SW 00:36:42 32° SSE 00:36:42 32° SSE visible
07 Dec 4.7 10:09:04 10° NW 10:12:56 28° NNE 10:17:30 10° E visible
07 Dec 5.5 23:44:45 10° SSW 23:52:22 29° SSE 23:54:45 25° SE visible
08 Dec 6.3 01:39:36 10° WSW 01:42:18 22° WSW 01:42:18 22° WSW visible
08 Dec 4.9 09:26:07 14° NNW 09:28:21 20° NNE 09:31:56 10° ENE visible
08 Dec 6.1 22:59:33 10° SSW 23:07:04 25° SSE 23:12:50 12° ESE visible
09 Dec 5.2 00:53:59 10° SW 01:00:23 48° SW 01:00:23 48° SW visible
09 Dec 5.2 08:44:16 15° NNE 08:44:16 15° NNE 08:46:21 10° ENE visible
10 Dec 4.6 00:08:25 10° SW 00:17:39 59° SSE 00:18:28 57° SE visible
10 Dec 6.8 02:05:01 10° W 02:06:01 14° W 02:06:01 14° W visible
10 Dec 3.5 09:49:58 14° NW 09:53:28 52° NNE 09:58:14 10° ESE visible
10 Dec 5.2 23:22:54 10° SW 23:32:23 50° SSE 23:36:33 29° E visible
11 Dec 5.8 01:19:04 10° WSW 01:24:06 34° W 01:24:06 34° W visible
11 Dec 3.8 09:08:08 33° N 09:08:59 37° NNE 09:13:09 10° E visible
11 Dec 5.6 22:37:31 10° SW 22:47:00 43° SSE 22:54:39 11° E visible
12 Dec 4.6 00:33:10 10° WSW 00:42:12 72° NW 00:42:12 72° NW visible
12 Dec 5.1 08:26:18 20° ENE 08:26:18 20° ENE 08:28:07 10° E visible
12 Dec 4.7 23:47:22 10° WSW 23:57:25 88° NNW 00:00:17 48° ENE visible
13 Dec 6.5 01:45:12 10° W 01:47:50 19° WNW 01:47:50 19° WNW visible
13 Dec 3.0 09:32:01 29° WNW 09:34:02 68° SSW 09:38:30 10° SE visible
13 Dec 4.9 23:01:41 10° SW 23:12:03 79° SSE 23:18:22 22° ENE visible
14 Dec 5.6 00:58:57 10° W 01:05:55 38° NW 01:05:55 38° NW visible
14 Dec 3.2 08:50:11 65° ESE 08:50:11 65° ESE 08:53:52 10° ESE visible
14 Dec 5.3 22:16:09 10° SW 22:26:35 67° SSE 22:35:42 10° ENE visible
